Weather History for Zanesville, OH

Change the Weather History Date:

Monday, March 24, 2014

  Actual Average Record
Temperature  
Mean Temperature 26 °F 44 °F  
Max Temperature 37 °F 55 °F 77 °F (1988)
Min Temperature 14 °F 33 °F 12 °F (1974)
Degree Days  
Heating Degree Days 39 21  
Month to date heating degree days 712 611  
Since 1 July heating degree days 5269 4802  
Cooling Degree Days 0 0  
Month to date cooling degree days 0 0  
Year to date cooling degree days 0 0  
Moisture  
Dew Point 9 °F    
Average Humidity 57    
Maximum Humidity 88    
Minimum Humidity 25    
Precipitation  
Precipitation 0.00 in 0.10 in 1.16 in (1969)
Month to date precipitation 1.15 2.22  
Year to date precipitation 3.73 7.05  
Sea Level Pressure  
Sea Level Pressure 30.27 in    
Wind  
Wind Speed 4 mph (WSW)    
Max Wind Speed 16 mph    
Max Gust Speed 22 mph    
Visibility 10 miles    
Events      
T = Trace of Precipitation, MM = Missing Value Source: NWS Daily Summary

Daily Weather History Graph

Daily Weather History Graph

Search for Another Location

Airport:

Trip Planner

Search our weather history database for the weather conditions in past years. The results will help you decide how hot, cold, wet, or windy it might be!

Date:

Astronomy

Mar. 24, 2014 Rise Set
Actual Time 7:24 AM EDT 7:43 PM EDT
Civil Twilight 6:57 AM EDT 8:10 PM EDT
Nautical Twilight 6:25 AM EDT 8:42 PM EDT
Astronomical Twilight 5:53 AM EDT 9:15 PM EDT
Moon 2:53 AM EDT (3/24) 1:08 PM EDT (3/24)
Length of Visible Light 13h 13m
Length of Day
12h 19m
Last Quarter, 43% of the Moon is Illuminated
Mar 24
Last Quarter
Mar 30
New
Apr 7
First Quarter
Apr 15
Full
Apr 22
Last Quarter

Hourly Weather History & Observations

Time (EDT) Temp. Windchill Dew Point Humidity Pressure Visibility Wind Dir Wind Speed Gust Speed Precip Events Conditions
12:53 AM 21.9 °F - 9.0 °F 58% 30.36 in 10.0 mi Calm Calm - N/A   Mostly Cloudy
1:53 AM 19.9 °F - 9.0 °F 62% 30.35 in 10.0 mi Calm Calm - N/A   Clear
2:53 AM 19.9 °F - 9.0 °F 62% 30.34 in 10.0 mi Calm Calm - N/A   Clear
3:53 AM 18.0 °F - 9.0 °F 68% 30.33 in 10.0 mi Calm Calm - N/A   Clear
4:53 AM 17.1 °F - 10.0 °F 74% 30.34 in 10.0 mi Calm Calm - N/A   Clear
5:53 AM 16.0 °F - 9.0 °F 74% 30.34 in 10.0 mi Calm Calm - N/A   Clear
6:53 AM 15.1 °F - 10.0 °F 80% 30.35 in 10.0 mi Calm Calm - N/A   Clear
7:53 AM 14.0 °F - 10.0 °F 84% 30.36 in 10.0 mi Calm Calm - N/A   Clear
8:53 AM 19.0 °F 13.9 °F 12.0 °F 74% 30.35 in 10.0 mi SE 3.5 mph - N/A   Clear
9:53 AM 21.9 °F 14.5 °F 10.0 °F 60% 30.35 in 10.0 mi South 5.8 mph - N/A   Overcast
10:53 AM 26.1 °F - 10.0 °F 51% 30.36 in 10.0 mi Calm Calm - N/A   Mostly Cloudy
11:53 AM 28.9 °F 20.4 °F 10.0 °F 45% 30.33 in 10.0 mi SW 9.2 mph - N/A   Mostly Cloudy
12:53 PM 30.9 °F 27.5 °F 9.0 °F 40% 30.30 in 10.0 mi Variable 3.5 mph - N/A   Clear
1:53 PM 33.1 °F 24.9 °F 8.1 °F 35% 30.26 in 10.0 mi WSW 10.4 mph 18.4 mph N/A   Partly Cloudy
2:53 PM 35.1 °F 28.6 °F 9.0 °F 34% 30.23 in 10.0 mi WNW 8.1 mph 21.9 mph N/A   Partly Cloudy
3:53 PM 36.0 °F 29.0 °F 8.1 °F 31% 30.20 in 10.0 mi WNW 9.2 mph 21.9 mph N/A   Partly Cloudy
4:53 PM 37.0 °F 28.9 °F 5.0 °F 26% 30.18 in 10.0 mi West 12.7 mph - N/A   Clear
5:53 PM 36.0 °F 27.5 °F 6.1 °F 29% 30.17 in 10.0 mi WSW 12.7 mph - N/A   Clear
6:53 PM 34.0 °F 28.0 °F 6.1 °F 31% 30.17 in 10.0 mi WSW 6.9 mph - N/A   Clear
7:53 PM 32.0 °F 26.4 °F 7.0 °F 35% 30.17 in 10.0 mi West 5.8 mph - N/A   Clear
8:53 PM 30.0 °F 24.1 °F 8.1 °F 40% 30.17 in 10.0 mi NNW 5.8 mph - N/A   Clear
9:53 PM 30.0 °F - 7.0 °F 38% 30.17 in 10.0 mi Calm Calm - N/A   Clear
10:53 PM 28.9 °F - 7.0 °F 40% 30.15 in 10.0 mi Calm Calm - N/A   Clear
11:53 PM 28.0 °F 24.2 °F 9.0 °F 45% 30.13 in 10.0 mi SSE 3.5 mph - N/A   Clear